Retour au catalogue

COSMOS 2251 DEB

ActifLEO
NORAD 34560·DEBRIS·🇷🇺 Russia

Lancé Jun 16, 1993 depuis Plesetsk Cosmodrome

Loading…

Prochains Passages (prochaines 24 heures)

TLE

FraisSource: Space-Track

Époque: Sep 14, 2026, 04:29 UTC

1 34560U 93036UW  26257.18688811  .00005695  00000-0  79432-3 0  9995
2 34560  74.0161 322.8125 0016238 331.3836  59.2834 14.77852408923145

Suivez COSMOS 2251 DEB en temps réel avec AllMySat

Download on the App Store